Время (UTC), дата Ветер
(°,м/с) 
Видим.   Явления Облачность Т
(°С)
Тd
(°С)
f(%) Тe
(°С)
Pmin
(гПа)
dP
(гПа)
Po
(мм)
O2
(г/м3)
Тmin Tmax R s Состояние
почвы
00 01.03.12 270 (З) >10 км  {снег}  10/0 средняя, верхняя 
[Ac trans|Ci fib]
-10.1 -10.7 95 -10  1017.9  0.9  756  317  -16.7    25  равномерный
сухой снег
100% 
03 01.03.12 270 (З) >10 км    3/3 1000 м средняя 
[Cu med, cong|Ac lent]
-4.5 -11 60 -4  1018  0.3  756  311           
06 01.03.12 340 (С) 3{10}  >10 км  позёмок  3/3 600 м кучево-дожд. 
[Cb cap]
-4.6 -14.5 46 -7  1018.1  0.1  756  311           
12 01.03.12 320 (СЗ) >10 км    ясно 
-10.1 -19.8 45 -13  1021.9  1.8  759  319    -2.8       
15 01.03.12 340 (С) >10 км    ясно 
-12.9 -19 60 -13  1023.4  1.3  760  323           
18 01.03.12 320 (СЗ) >10 км    ясно 
-16.2 -20.4 70 -19  1023.7  0.3  760  327           
21 01.03.12 290 (З) >10 км    ясно 
-16.9 -21.9 65 -22  1024.6  0.9  761  328           
00 02.03.12 360 (С) >10 км    ясно 
-14.2 -21.3 55 -18  1025.3  0.7  761  325  -20.6      25  равномерный
сухой снег
100% 
03 02.03.12 340 (С) >10 км    ясно 
-9.5 -19.4 44 -12  1024.9  -0.2  761  319           
06 02.03.12 320 (СЗ) >10 км    ясно 
-7.9 -19.5 39 -11  1024  -0.9  760  317           
09 02.03.12 290 (З) >10 км    ясно 
-11.7 -21.3 45 -15  1024.9  0.9  761  322    -7       
12 02.03.12 320 (СЗ) >10 км    ясно 
-15.8 -23.9 50 -18  1026.3  1.1  762  328    -7       
15 02.03.12 270 (З) >10 км    ясно 
-19.8 -25.6 59 -20  1027.1  0.6  762  333           
18 02.03.12 340 (С) >10 км    ясно 
-18.7 -24.5 60 -21  1027.1  762  331           
21 02.03.12 250 (З) >10 км    ясно 
-25.9 -29.8 70 -26  1028.8  1.5  763  342           
00 03.03.12 360 (С) >10 км    ясно 
-17.1 -23 60 -20  1030  1.6  765  330  -27.9      25  равномерный
сухой снег
100% 
03 03.03.12 360 (С) >10 км    ясно 
-10.7 -20.3 45 -14  1029.7  -0.1  765  322           
06 03.03.12 290 (З) >10 км    ясно 
-8 -19.7 39 -11  1028.9  -0.8  764  319           
09 03.03.12 290 (З) >10 км    ясно 
-9.7 -20.6 41 -13  1029.7  0.8  765  321    -7.1       
12 03.03.12 290 (З) >10 км    ясно 
-15.8 -25 45 -16  1030.7  0.8  765  329    -7.1       
15 03.03.12 180 (Ю) >10 км    ясно 
-22.8 -27.6 65 -23  1031.6  0.5  766  338           
18 03.03.12 тихо ()   >10 км    ясно 
-24.4 -26.9 80 -24  1032.1  0.5  766  341           
21 03.03.12 290 (З) >10 км    ясно 
-28.3 -30.7 80 -29  1032.9  0.6  766  346           
00 04.03.12 050 (СВ) >10 км    ясно 
-18.9 -23 70 -19  1032.8  0.3  767  334  -28.4      25  равномерный
сухой снег
100% 
03 04.03.12 140 (ЮВ) >10 км    ясно 
-9.2 -18.1 48 -9  1031.2  -1.2  766  321           
06 04.03.12 160 (Ю) >10 км    1/0 верхняя 
[Cc]
-5.5 -16.2 43 -8  1028.2  -2.8  764  315           
09 04.03.12 230 (ЮЗ) >10 км    8/0 средняя, верхняя 
[Ac lent|Cc]
-7.2 -16.6 47 -9  1027.6  -0.6  763  317    -5       
12 04.03.12 230 (ЮЗ) >10 км    10/0 средняя, верхняя 
[Ac trans|Cc]
-12.1 -18.3 60 -14  1027.7  -0.1  763  323    -5       
15 04.03.12 050 (СВ) >10 км    5/0 средняя, верхняя 
[Ac lent|Ci fib]
-13.8 -19 65 -14  1027.3  -0.6  763  325           
18 04.03.12 050 (СВ) >10 км    3/0 верхняя 
[Ci fib]
-16.2 -20.4 70 -16  1026.4  -0.9  762  328           
21 04.03.12 360 (С) >10 км    3/0 верхняя 
[Ci fib]
-18.5 -19.7 90 -21  1026.6  762  331           
00 05.03.12 360 (С) 10 км    ясно 
-16.2 -18.1 85 -19  1026.8  0.4  762  328  -22.6      24  равномерный
сухой снег
100% 
03 05.03.12 050 (СВ) 10 км    10/0 верхняя 
[Cs]
-9 -15.1 61 -11  1025.4  -1.2  761  319           
06 05.03.12 200 (Ю) 10 км    10/0 верхняя 
[Cs]
-5.4 -13 55 -5  1022.9  2.2  760  313           
09 05.03.12 070 (В) 10 км    10/0 средняя 
[Ac As]
-6.7 -13.4 59 -6  1022.3  -0.6  759  315    -5       
12 05.03.12 тихо ()   10 км    10/0 верхняя 
[Cs]
-13.9 -16.6 80 -14  1022.8  0.1  759  324    -5       
15 05.03.12 360 (С) 10 км    10/0 верхняя 
[Cs]
-15.7 -17.6 86 -16  1022.3  -0.5  759  326           
18 05.03.12 050 (СВ) 10 км    10/0 средняя 
[As trans]
-14.8 -16.8 85 -15  1021.7  -0.6  758  325           
21 05.03.12 050 (СВ) 10 км    10/0 средняя 
[As trans]
-15 -16.3 90 -15  1020.9  -0.8  758  325           
00 06.03.12 050 (СВ) 10 км    10/0 средняя 
[As trans]
-12.5 -16.8 71 -15  1019.9  -0.8  757  321  -16.5      24  равномерный
сухой снег
100% 
03 06.03.12 050 (СВ) >10 км    10/0 средняя 
[As trans]
-6.8 -13.5 59 -8  1018.6  -1.1  756  314           
06 06.03.12 070 (В) 10 км    10/0 средняя 
[As trans]
-3.8 -11.4 56 -5  1016.1  -2.5  755  309           
09 06.03.12 020 (С) 10 км    10/0 средняя 
[As trans]
-4.9 -11.2 61 -4  1015.8  -0.3  754  311    -3.5       
12 06.03.12 тихо ()   10 км    10/0 средняя 
[As trans]
-6.4 -11.9 65 -6  1015.6  -0.2  754  312    -3.5       
15 06.03.12 090 (В) 10 км    10/0 средняя 
[As trans]
-3.9 -11.6 55 -7  1015.4  -0.2  754  309           
18 06.03.12 090 (В) 10 км    10/0 средняя 
[As trans]
-5.1 -11 63 -6  1015.4  754  311           
21 06.03.12 090 (В) 10 км    10/0 средняя 
[As trans]
-5.7 -10.9 67 -8  1016.4  755  312           
00 07.03.12 070 (В) 4000 м  слаб. снег  10/0 средняя 
[As op]
-6.1 -8.4 84 -9  1017.9  1.5  756  312  -6.9      24  равномерный
сухой снег
100% 
03 07.03.12 070 (В) 2000 м  слаб. снег  10/3 300 м средняя 
[Frnb|As op]
-4.8 -6.1 91 -7  1018.3  0.4  756  311           
06 07.03.12 090 (В) 2000 м  слаб. снег  10/0 средняя 
[As op]
-4.5 -5.4 93 -7  1018.7  0.4  757  311           
12 07.03.12 070 (В) 4000 м  слаб. снег  10/0 средняя 
[As trans]
-6.9 -7.4 96 -7  1020.5  0.9  758  314    -3.9     
15 07.03.12 050 (СВ) 2000 м  снег  10/0 средняя 
[As op]
-7.5 -7.7 99 -7  1020.8  0.3  758  315           
18 07.03.12 050 (СВ) 2000 м  снег  10/0 средняя 
[As op]
-7.7 -7.5 100 -9  1020.8  758  315           
21 07.03.12 050 (СВ) 2000 м  снег  10/0 
-8.2 -8.1 100 -10  1021  758  316           
00 08.03.12 070 (В) 4000 м  слаб. снег  10/0 средняя 
[As op]
-7.7 -8.3 95 -9  1021.2  0.4  758  315  -8.2    29  равномерный
сухой снег
100% 
03 08.03.12 090 (В) 4000 м  слаб. снег  10/0 средняя 
[As trans]
-6.2 -8.1 86 -8  1021.3  0.1  758  314           
06 08.03.12 тихо ()   1000 м  снег  10/0 средняя 
[As op]
-5.6 -7.4 87 -6  1021.3  758  313           
12 08.03.12 290 (З) >10 км  {снег}  10/0 верхняя 
[Cs]
-14.5 -14.5 100 -15  1023.6  1.4  760  325    -5.3     
15 08.03.12 290 (З) >10 км    10/0 верхняя 
[Cs]
-16.4 -16.4 100 -17  1024.2  0.6  760  327           
18 08.03.12 тихо ()   4000 м  слаб. снег  10/0 средняя 
[As trans]
-16.3 -16.3 100 -16  1024.6  0.4  761  327           
21 08.03.12 тихо ()   4000 м  слаб. снег  10/0 средняя 
[Ac As]
-17.4 -18 96 -17  1024.9  0.3  761  329           
00 09.03.12 050 (СВ) 1000 м  слаб. снег  10/0 средняя 
[As op]
-11.7 -11.7 100 -12  1025.5  0.7  761  322  -20.1    0.0  32  равномерный
сухой снег
100% 
03 09.03.12 160 (Ю) 2000 м  слаб. снег  10/0 средняя, верхняя 
[Ac trans|Cs]
-7.4 -10 81 -9  1025.3  761  316           
06 09.03.12 200 (Ю) 4000 м  слаб. снег  10/0 средняя, верхняя 
[As trans|Cs]
-5.9 -9.4 76 -7  1024.5  -0.7  761  314           
12 09.03.12 тихо ()   4000 м  дымка{снег}  10/0 верхняя 
[Cs]
-15.4 -16 95 -15  1024.7  0.4  761  326    -5.5  0.3     
15 09.03.12 тихо ()   1000 м  дымка  10/0 верхняя 
[Cs]
-17.3 -17.3 100 -17  1024.5  -0.2  761  329           
18 09.03.12 тихо ()   2000 м  в посл. час туман  ясно 
-19 -19.6 95 -19  1024.7  761  331           
21 09.03.12 тихо ()   1000 м  дымка  10/0 средняя 
[As trans]
-20.7 -21.3 95 -21  1024.5  -0.2  760  333           
00 10.03.12 180 (Ю) 4000 м  дымка  3/0 средняя 
[Ac lent]
-14.8 -15.4 95 -15  1024.2  -0.1  760  325  -23.6      32  равномерный
сухой снег
100% 
03 10.03.12 180 (Ю) >10 км    1/1 600 м 
-5.8 -11 66 -5  1022.5  -1.3  759  314           
06 10.03.12 180 (Ю) >10 км    9/1 600 м кучево-дожд., средняя, верхняя 
[Cb cap|Ac trans|Ci fib]
-4.2 -9.2 68 -5  1020.5  -2  758  311           
09 10.03.12 180 (Ю) >10 км    9/1 1000 м средняя, верхняя 
[Sc diur, vesp|Ac cuf|Cs]
-5.7 -11.4 64 -5  1019.7  -0.8  757  313    -3.4       
12 10.03.12 270 (З) >10 км    4/0 средняя, верхняя 
[Ac lent|Ci fib]
-11.5 -15.9 70 -11  1020  0.1  757  320    -3.4       
15 10.03.12 тихо ()   >10 км    ясно 
-16.2 -20.4 70 -16  1020.4  0.2  758  326           
18 10.03.12 360 (С) >10 км    8/0 верхняя 
[Cs]
-15.5 -18.2 80 -16  1020.2  -0.2  757  325           
21 10.03.12 050 (СВ) >10 км    5/0 верхняя 
[Cs]
-17.8 -18.4 95 -18  1020.1  -0.3  757  328           
00 11.03.12 360 (С) >10 км    1/0 верхняя 
[Ci fib]
-13.8 -15.8 85 -16  1020.3  0.4  757  323  -21.4      31  равномерный
сухой снег
100% 
03 11.03.12 360 (С) >10 км    3/3 1000 м верхняя 
[Cu hum|Ci fib]
-5.2 -13.7 51 -5  1019.2  -0.7  757  312           
06 11.03.12 200 (Ю) >10 км    8/4 600 м кучево-дожд., средняя, верхняя 
[Cb calv|Ac lent|Ci]
-3 -13.3 45 -5  1018.2  -1  756  309           
09 11.03.12 360 (С) >10 км    ясно 
-4.6 -15.5 42 -7  1018.4  0.2  756  311    -2.7       
12 11.03.12 360 (С) >10 км    1/0 верхняя 
[Ci fib]
-8.8 -18.8 44 -10  1020.4  1.8  758  317    -2.7       
15 11.03.12 340 (С) >10 км    ясно 
-13 -20.2 55 -13  1020.9  0.3  758  322           
18 11.03.12 250 (З) >10 км    ясно 
-18.1 -23.1 65 -18  1021.5  0.4  758  329           
21 11.03.12 тихо ()   >10 км    ясно 
-24.7 -26.5 84 -25  1022.2  0.5  759  338           
00 12.03.12 340 (С) >10 км    ясно 
-11.3 -17.5 60 -14  1022.2  0.6  759  320  -25.1      29  равномерный
сухой снег
100% 
03 12.03.12 360 (С) >10 км    ясно 
-5.7 -15.9 44 -8  1021.6  -0.4  759  314           
06 12.03.12 250 (З) >10 км    ?/? 600 м кучево-дожд. 
[Cb cap]
-3.6 -15.1 41 -3  1020.3  -1.3  758  311           
09 12.03.12 290 (З) >10 км    1/1 1000 м 
[Sc diur, vesp]
-5.7 -16.5 42 -8  1020.2  -0.1  758  313    -1.9       
12 12.03.12 290 (З) >10 км    ясно 
-10.1 -18.6 50 -13  1021.2  0.8  758  319    -1.9       
15 12.03.12 тихо ()   >10 км    ясно 
-18.2 -22.3 71 -18  1021.9  0.3  758  329           
18 12.03.12 тихо ()   >10 км    ясно 
-19.9 -21.8 85 -20  1021.8  -0.1  758  331           
21 12.03.12 360 (С) >10 км    ясно 
-22.2 -23.5 89 -23  1021.5  -0.3  758  334           
00 13.03.12 050 (СВ) >10 км    10/0 верхняя 
[Cc]
-15.3 -18.7 75 -18  1021.2  -0.1  758  325  -23.9      29  равномерный
сухой снег
100% 
03 13.03.12 160 (Ю) >10 км    9/0 средняя, верхняя 
[Ac lent|Cc]
-6.6 -14.9 52 -6  1019.8  -1  757  314           
06 13.03.12 180 (Ю) >10 км    4/4 600 м кучево-дожд. 
[Cb calv]
-2.3 -12 47 -4  1017.4  -2.2  756  308           
09 13.03.12 200 (Ю) >10 км    6/0 средняя 
[Ac lent]
-6.1 -14.7 51 -9  1016.9  -0.7  755  313    -1.7       
12 13.03.12 180 (Ю) >10 км    ясно 
-9.5 -14.7 66 -11  1017.5  0.4  755  317    -1.7       
15 13.03.12 090 (В) >10 км    ясно 
-12.9 -16.4 75 -15  1017.2  -0.5  755  321           
18 13.03.12 110 (В) >10 км    10/0 средняя 
[As trans]
-13.7 -16.4 80 -14  1016.3  -0.9  754  321           
21 13.03.12 050 (СВ) >10 км    10/0 средняя, верхняя 
[Ac As|Cs]
-14.9 -16.2 90 -15  1015.5  -0.8  754  323           
00 14.03.12 360 (С) >10 км    10/0 средняя, верхняя 
[Ac lent|Cc]
-9.3 -13.3 73 -9  1015.6  0.3  754  316  -15.5      28  равномерный
сухой снег
100% 
03 14.03.12 070 (В) >10 км    6/0 средняя, верхняя 
[Ac lent|Cc]
-4.7 -12.4 55 -4  1015.3  -0.1  754  310           
06 14.03.12 200 (Ю) >10 км    6/3 600 м кучево-дожд., верхняя 
[Cb cap|Ci fib]
-2.1 -11.6 48 -2  1014.5  -0.5  754  307           
09 14.03.12 320 (СЗ) >10 км    8/5 1000 м средняя 
[Sc diur, vesp|Ac lent]
-3 -9.3 62 -5  1015.7  0.9  754  308    +0.2       
12 14.03.12 340 (С) >10 км    3/0 средняя 
[Ac lent]
-6.4 -13.4 58 -9  1018.1  2.4  756  313    +0.2       
15 14.03.12 360 (С) >10 км    ясно 
-10.1 -18.6 50 -12  1019.8  1.5  757  318           
18 14.03.12 320 (СЗ) >10 км    ясно 
-14.4 -21.5 55 -14  1021.3  1.3  758  324           
21 14.03.12 200 (Ю) >10 км    3/0 средняя 
[Ac lent]
-21.3 -25.3 70 -24  1022.2  0.7  759  333           
00 15.03.12 200 (Ю) >10 км    10/0 верхняя 
[Cs]
-12.7 -17.9 65 -13  1023.1  1.1  760  322  -22.6      27  равномерный
сухой снег
100% 
03 15.03.12 140 (ЮВ) >10 км    3/0 верхняя 
[Cc]
-4.1 -14.1 46 -5  1022.2  -0.5  759  312           
06 15.03.12 250 (З) >10 км    ясно 
-1 -11.2 46 -4  1020.5  -1.5  758  308           
09 15.03.12 180 (Ю) >10 км    ясно 
-2.4 -11.7 49 -4  1020.2  -0.3  758  309    -0.1       
12 15.03.12 140 (ЮВ) >10 км    ясно 
-7.4 -10.9 76 -9  1021  0.6  758  315    -0.1       
15 15.03.12 070 (В) >10 км    10/0 верхняя 
[Cs]
-10 -12.8 80 -12  1021  -0.2  758  318           
18 15.03.12 050 (СВ) >10 км    ясно 
-11.9 -14.6 80 -12  1018.8  -2.2  756  320           
21 15.03.12 110 (В) >10 км    9/0 средняя, верхняя 
[Ac As|Cs]
-10.6 -13.4 80 -10  1015.9  -2.9  754  317           
00 16.03.12 090 (В) >10 км    10/0 средняя 
[As op]
-8.4 -12.1 74 -10  1013.3  -2.5  752  314  -11.9      25  равномерный
сухой снег
100% 
03 16.03.12 110 (В) 1000 м  снег  10/0 средняя 
[As op]
-6.7 -8.7 86 -8  1009.8  -3.3  750  311           
06 16.03.12 360 (С) 1000 м  сильн. снег  10/0 средняя 
[As op]
-5.7 -5.7 100 -7  1006.8  -3  748  308           
12 16.03.12 360 (С) 4000 м  слаб. снег  10/0 средняя 
[As op]
-5 -5 100 -5  1006.6  0.6  748  307    -4.7     
15 16.03.12 270 (З) 4000 м  дымка{снег}  4/0 средняя 
[Ac trans]
-9.1 -9.4 98 -9  1007.7  0.9  748  313           
18 16.03.12 020 (С) 4000 м  дымка{снег}  3/0 средняя 
[Ac lent]
-14.2 -14.8 95 -14  1009.4  1.5  749  320           
21 16.03.12 360 (С) 10 км    9/0 средняя 
[Ac lent]
-11.4 -12 95 -13  1011.7  2.5  751  317           
00 17.03.12 340 (С) 7-11{12}  >10 км  позёмок  10/3 600 м кучево-дожд., средняя 
[Cb cap|Ac lent]
-13 -21.3 50 -20  1015.2  3.3  754  320  -18    0.7  33  равномерный
сухой снег
100% 
06 17.03.12 340 (С) 4{12}  >10 км  позёмок  ясно 
-11.1 -23.6 35 -15  1015.5  -0.3  754  318           
12 17.03.12 250 (З) 2{12}  >10 км    ясно 
-21.3 -31.4 39 -24  1021.1  1.9  758  333    -10.6       
15 17.03.12 250 (З) >10 км    ясно 
-20.3 -29.2 45 -25  1020.6  -0.5  758  332           
18 17.03.12 230 (ЮЗ) >10 км    ясно 
-24.5 -32.1 50 -28  1020.1  -0.7  757  337           
21 17.03.12 180 (Ю) >10 км    ясно 
-26.4 -31.9 59 -27  1018.2  -1.9  756  339           
00 18.03.12 270 (З) >10 км    ясно 
-16.9 -23.8 55 -17  1014.5  -3.2  753  325  -26.5      31  равномерный
сухой снег
100% 
06 18.03.12 360 (С) 4-12  >10 км  позёмок  10/5 600 м кучево-дожд., средняя, верхняя 
[Cb cap|Ac trans|Ci fib]
-11.5 -22.4 40 -16  1010.6  -1.1  750  317           
12 18.03.12 320 (СЗ) >10 км    4/0 средняя 
[Ac trans]
-15.6 -23.7 50 -18  1011.3  0.1  751  322    -11.2       
15 18.03.12 320 (СЗ) >10 км    8/0 средняя 
[Ac As]
-15.8 -22.8 55 -21  1008.3  -3  749  322           
18 18.03.12 270 (З) 3{10}  >10 км    3/0 средняя 
[Ac lent]
-17.6 -23.5 60 -22  1006.8  -1.7  747  323           
21 18.03.12 250 (З) >10 км    9/0 средняя, верхняя 
[Ac lent|Cc]
-18 -23 64 -21  1005.5  -1.3  746  324           
00 19.03.12 360 (С) >10 км    ясно 
-10.3 -17.6 55 -13  1005.7  0.6  747  314  -18.6      29  равномерный
сухой снег
100% 
03 19.03.12 340 (С) >10 км    9/3 600 м кучево-дожд., средняя, верхняя 
[Cb cap|Ac trans|Ci fib]
-5.4 -15.3 45 -8  1004.9  -0.6  746  308           
06 19.03.12 360 (С) >10 км    9/3 600 м кучево-дожд., средняя 
[Cb cap|Ac cuf]
-3.6 -15.1 41 -6  1003.7  -1.1  745  306           
12 19.03.12 320 (СЗ) 3{12}  >10 км    10/0 средняя 
[Ac As]
-7.9 -16.5 50 -11  1006.2  0.7  747  311    -2.8       
15 19.03.12 290 (З) >10 км    1/0 средняя 
[Ac trans]
-9.1 -16.5 55 -14  1005.3  -0.9  746  312           
18 19.03.12 340 (С) >10 км    3/0 средняя 
[Ac trans]
-11.2 -17.4 60 -13  1005.8  0.5  747  315           
21 19.03.12 340 (С) >10 км    1/0 средняя 
[Ac lent]
-12.9 -18.1 65 -13  1006.7  0.7  747  317           
00 20.03.12 360 (С) >10 км    10/0 средняя 
[Ac As]
-7.3 -15.5 52 -11  1007.1  0.8  748  311  -13      28  равномерный
сухой снег
100% 
03 20.03.12 340 (С) >10 км    10/0 средняя, верхняя 
[Ac trans|Ci]
-3.9 -14.4 44 -7  1006.3  -0.8  747  307           
06 20.03.12 320 (СЗ) 5-12{12}  >10 км    10/0 верхняя 
[Cc]
-1.4 -13.1 40 -5  1003.7  -2.3  746  303           
12 20.03.12 340 (С) 3{12}  >10 км    4/0 средняя 
[Ac lent]
-4.1 -14.1 46 -6  1005.6  0.9  747  307    +0       
15 20.03.12 340 (С) >10 км    ясно 
-6.7 -15.7 49 -8  1005.6  747  310           
18 20.03.12 320 (СЗ) >10 км    ясно 
-6.1 -15.9 46 -9  1005.5  -0.1  747  309           
21 20.03.12 290 (З) >10 км    ясно 
-7.4 -13.6 61 -12  1005.5  747  310           
00 21.03.12 290 (З) >10 км    3/0 верхняя 
[Ci fib]
-3.9 -14.4 44 -8  1006.3  0.8  747  307  -9.7      28  равномерный
сухой снег
100% 
03 21.03.12 270 (З) >10 км    10/0 средняя, верхняя 
[Ac As|Cc]
+0.7 -11.7 39 -2  1004.2  -1.8  746  301           
06 21.03.12 270 (З) >10 км    10/0 средняя 
[Ac As]
+2.9 -10.1 38 +1  1002  -2  744  298           
09 21.03.12 250 (З) >10 км    10/0 средняя, верхняя 
[Ac As|Cc]
+1.6 -8.8 46 -1  1001.1  -1.1  744  299    +3.5       
12 21.03.12 250 (З) >10 км    10/0 верхняя 
[Cs]
-1.9 -9.8 55 -4  1002.2  1.1  744  303    +3.5       
15 21.03.12 320 (СЗ) >10 км    ясно 
-6.8 -12.5 64 -6  1002.5  0.1  745  309           
18 21.03.12 050 (СВ) >10 км    ясно 
-8.1 -12.7 70 -8  1003.6  0.9  745  311           
21 21.03.12 320 (СЗ) >10 км    4/0 средняя 
[Ac lent]
-9.3 -13.3 73 -9  1007.1  3.4  748  313           
00 22.03.12 360 (С) >10 км    9/0 средняя, верхняя 
[Ac lent|Cc]
-3.3 -9.3 63 -4  1009.3  2.4  750  307  -10      25  равномерный
мокрый или
старый снег
100% 
03 22.03.12 160 (Ю) >10 км    9/0 верхняя 
[Cc]
+1.2 -11.2 39 +2  1009.6  0.5  750  302           
06 22.03.12 200 (Ю) >10 км    10/0 средняя, верхняя 
[Ac As|Cs]
+2.3 -8.6 44 +1  1008.9  -0.5  750  300           
09 22.03.12 320 (СЗ) >10 км    10/3 600 м средняя, верхняя 
[Ac As|Cs]
+1.7 -9.6 43 1010.1  752  302    +3.6       
12 22.03.12 340 (С) >10 км    10/0 верхняя 
[Cs]
+0.2 -9.6 48 -2  1012.3  2.2  752  304    +3.6       
15 22.03.12 320 (СЗ) >10 км    ясно 
-1.5 -9.2 56 -2  1012.9  0.6  752  306           
18 22.03.12 290 (З) >10 км    ясно 
-5.1 -10.5 66 -6  1013.5  0.4  753  310           
21 22.03.12 290 (З) >10 км    ясно 
-7.3 -12.1 68 -10  1013.5  753  313           
00 23.03.12 270 (З) >10 км    ясно 
-0.7 -8.3 56 -2  1013.8  0.5  753  305  -9      24  равномерный
мокрый или
старый снег
100% 
03 23.03.12 340 (С) >10 км    3/3 1000 м 
[Cu hum]
+3.5 -8 43 +3  1012.4  -1.2  752  300           
06 23.03.12 360 (С) >10 км    3/3 1000 м 
[Cu hum]
+5.3 -7.8 38 +5  1010.5  -1.9  751  298           
09 23.03.12 360 (С) >10 км    ясно 
+3.9 -10.4 34 +3  1009.9  -0.6  750  299    +6.2       
12 23.03.12 360 (С) >10 км    ясно 
-0.9 -11.6 44 -2  1010.4  0.3      +6.2       
15 23.03.12 тихо ()   >10 км    ясно 
-4.9 -12.7 54 -5  1009.9  -0.7  750  309           
18 23.03.12 050 (СВ) >10 км    ясно 
-8 -14.2 61 -8  1009.3  -0.8  749  312           
21 23.03.12 070 (В) >10 км    8/0 средняя 
[Ac lent]
-8.8 -11.7 79 -9  1008  -1.3  748  313           
00 24.03.12 360 (С) >10 км    10/0 верхняя 
[Cc]
-4 -9.4 66 -4  1007.7  -0.1  748  307  -9.9      18  равномерный
мокрый или
старый снег
100% 
03 24.03.12 200 (Ю) >10 км    10/0 верхняя 
[Cc]
+3.2 -7.2 46 +4  1005.9  -1.4  747  298           
06 24.03.12 180 (Ю) >10 км    4/0 средняя 
[Ac lent]
+4.7 -7.9 39 +4  1003.8  -2  746  296           
09 24.03.12 360 (С) >10 км    8/0 средняя 
[Ac trans]
+2.6 -6.8 50 1003.8  746  298    +5.9       
12 24.03.12 360 (С) >10 км    4/0 средняя 
[Ac lent]
-1 -10.7 48 -4  1005.7  1.6  747  303    +5.9       
15 24.03.12 360 (С) >10 км    10/0 средняя, верхняя 
[Ac lent|Cs]
-3.5 -12 52 -6  1006.7  0.8  748  306           
18 24.03.12 340 (С) >10 км    ясно 
-5.9 -13.2 56 -7  1006.7  748  309           
21 24.03.12 340 (С) >10 км    ясно 
-9.8 -14.5 68 -10  1006.9  748  314           
00 25.03.12 360 (С) >10 км    ясно 
-4.2 -12.1 54 -7  1007.1  0.4  748  307  -11.9      14  мокрый или
старый снег
50-90% 
03 25.03.12 320 (СЗ) >10 км    9/6 600 м кучево-дожд., средняя 
[Cb cap|Ac cuf]
-2.3 -12 47 -5  1006.3  -0.6  747  305           
06 25.03.12 340 (С) 3{10}  >10 км    5/4 600 м кучево-дожд., средняя 
[Cb cap|Ac cuf]
-1.3 -11.6 45 -3  1006.2  -0.1  747  304           
12 25.03.12 340 (С) >10 км    3/0 средняя 
[Ac lent]
-5.8 -13.1 56 -7  1008.8  1.3  749  310    -0.6       
15 25.03.12 320 (СЗ) >10 км    ясно средняя 
[Ac lent]
-7.4 -13.3 63 -9  1008.4  -0.4  749  311           
18 25.03.12 320 (СЗ) >10 км    10/0 средняя, верхняя 
[Ac trans|Ci fib]
-7.9 -13 67 -8  1008.3  -0.3  749  312           
21 25.03.12 360 (С) >10 км    10/0 средняя, верхняя 
[Ac trans|Cc]
-9.3 -13.3 73 -11  1008.5  0.2  749  314           
00 26.03.12 360 (С) >10 км    9/0 средняя, верхняя 
[Ac lent|Cc]
-4.8 -11 62 -7  1009  0.7  749  308  -9.8      13  мокрый или
старый снег
50-90% 
03 26.03.12 360 (С) >10 км    8/3 1000 м средняя, верхняя 
[Cu hum|Ac lent|Cc]
-0.9 -9.6 52 -3  1008.1  -0.7  749  304           
06 26.03.12 250 (З) >10 км    4/3 1000 м средняя 
[Cu hum|Ac cuf]
+2.6 -8.1 45 +1  1007.1  -0.8  748  299           
09 26.03.12 110 (В) >10 км    1/0 средняя 
[Ac cuf]
+0.4 -8.8 50 1007.5  0.2  748  302    +3.5       
12 26.03.12 140 (ЮВ) >10 км    ясно 
-4.7 -9.5 69 -4  1009.5  1.8  750  308    +3.5       
15 26.03.12 070 (В) >10 км    ясно 
-7.7 -8.7 92 -7  1010.6  1.1  751  312           
18 26.03.12 тихо ()   >10 км    ясно 
-9.7 -10.5 94 -10  1011.6  0.8  751  315           
21 26.03.12 020 (С) >10 км    ясно 
-11.1 -11.7 95 -11  1012.2  0.6  752  317           
00 27.03.12 110 (В) >10 км    ясно 
-4.7 -8.7 74 -4  1012.8  0.8  752  309  -13      12  мокрый или
старый снег
50-90% 
03 27.03.12 230 (ЮЗ) >10 км    8/0 верхняя 
[Ci]
+1.8 -6.7 53 +3  1012.7  0.1  752  302           
06 27.03.12 180 (Ю) >10 км    3/0 верхняя 
[Cc]
+4.1 -8 41 +3  1012.1  -0.4  752  299           
09 27.03.12 180 (Ю) >10 км    ясно 
+4 -7.7 42 +4  1013.3  1.2  753  300    +5       
12 27.03.12 тихо ()   >10 км    ясно 
-3.9 -6.8 80 -4  1015.5  1.7  754  309    +5       
15 27.03.12 320 (СЗ) >10 км    ясно 
-5.2 -7.7 83 -5  1016.4  0.9  755  311           
18 27.03.12 тихо ()   >10 км    ясно 
-8.1 -9.1 92 -8  1017.4  0.8  755  315           
21 27.03.12 250 (З) >10 км    5/0 средняя, верхняя 
[Ac lent|Cc]
-9.7 -10.1 97 -10  1017.4  755  317           
00 28.03.12 250 (З) >10 км    9/0 средняя, верхняя 
[Ac und|Cc]
+1 -3.2 74 1016.5  -0.5  755  303  -10.1      мокрый или
старый снег
50-90% 
03 28.03.12 290 (З) 5{10}  >10 км    9/0 средняя, верхняя 
[Ac lent|Cc]
+6.3 -3.6 49 +4  1013.6  -2.6  753  297           
06 28.03.12 270 (З) 5{11}  >10 км    10/3 600 м кучево-дожд., средняя, верхняя 
[Cb cap|Ac As|Cs]
+8.7 -3.3 43 +7  1010.1  -3.4  751  293           
12 28.03.12 230 (ЮЗ) >10 км    8/0 верхняя 
[Cc]
+2.5 -3.4 65 +2  1009.4  -0.3  750  300    +10       
15 28.03.12 230 (ЮЗ) >10 км    10/0 верхняя 
[Cs]
+0.9 -4 70 +2  1009.2  -0.4  750  302           
18 28.03.12 230 (ЮЗ) >10 км    10/0 средняя 
[As trans]
-0.8 -5 73 1008.8  -0.4  749  303           
21 28.03.12 360 (С) >10 км    10/0 средняя 
[As op]
+1.5 -2.3 76 +2  1008.8  749  301           
00 29.03.12 070 (В) >10 км    10/5 1000 м кучево-дожд., средняя 
[Cb cap|Ac trans]
+4.2 -3.3 58 +2  1008.2  -0.4  749  298  -1      равномерный
мокрый или
старый снег
100% 
03 29.03.12 360 (С) 4{10}  >10 км    8/0 средняя, верхняя 
[Ac lent|Cc]
+5.5 -2.8 55 +4  1007.3  -0.9  748  296           
06 29.03.12 360 (С) 3{10}  >10 км    10/0 средняя 
[As trans]
+6.6 -2.4 53 +6  1005.3  -2  747  294           
09 29.03.12 110 (В) >10 км    10/0 средняя 
[Ac As]
+3.8 -2.8 62 +2  1004.7  -0.6  746  297    +7.3       
12 29.03.12 110 (В) 4{11}  2000 м  снег{ливн. осадки}  10/0 средняя 
[As op]
-0.8 -1.2 97 -3  1005.6  0.7  747  302    +7.3       
15 29.03.12 090 (В) 2000 м  снег  10/0 средняя 
[As op]
-1.5 -1.7 99 -3  1003.3  -2.2  745  302           
18 29.03.12 110 (В) 2000 м  снег  10/0 средняя 
[As op]
-2.6 -2.6 100 -5  1001.7  -1.6  744  303           
21 29.03.12 050 (СВ) 2000 м  снег  10/0 средняя 
[As op]
-3.2 -3.3 99 -5  1000.2  -1.7  743  303           
00 30.03.12 070 (В) 2000 м  слаб. снег  10/0 средняя 
[As op]
-3.5 -4.3 94 -6  1001.1  0.9  743  304  -3.6    10  равномерный
сухой снег
100% 
03 30.03.12 090 (В) 4000 м  слаб. снег  10/1 600 м средняя 
[Frnb|As op]
-2.6 -4.2 89 -5  1002.8  1.9  745  303           
06 30.03.12 070 (В) 2000 м  слаб. снег{ливн. осадки}  10/1 600 м кучево-дожд., средняя 
[Cb cap|As trans]
-2.3 -3.2 94 -3  1004.8  1.9  746  304           
09 30.03.12 180 (Ю) >10 км  {ливн. осадки, снег}  10/10 600 м 
-3.7 -5.2 89 -6  1007.8  2.8  748  306    -0.7       
12 30.03.12 180 (Ю) >10 км  слаб. ливневой снег  9/3 600 м кучево-дожд., средняя 
[Cb cap|Ac As]
-5.9 -7 92 -8  1010.6  2.8  751  310    -0.7     
15 30.03.12 140 (ЮВ) 2000 м  слаб. снег{ливн. осадки}  10/0 средняя 
[As op]
-6.4 -6.9 96 -6  1012  1.4  752  311           
18 30.03.12 140 (ЮВ) 10 км  {ливн. осадки, снег}  10/0 средняя 
[Ac As]
-6.9 -7.8 93 -8  1012  752  312           
21 30.03.12 090 (В) >10 км    10/0 средняя 
[Ac As]
-8.9 -11.3 83 -9  1012.7  0.5  752  314           
00 31.03.12 110 (В) >10 км    9/0 средняя 
[Ac trans]
-6.7 -12.8 62 -9  1013.1  0.6  752  312  -8.9    0.5  14  равномерный
сухой снег
100% 
03 31.03.12 180 (Ю) >10 км    8/6 1000 м средняя 
[Cu med, cong|Ac lent]
-3.4 -11.8 52 -3  1012.8  -0.3  752  308           
06 31.03.12 200 (Ю) >10 км    6/6 600 м кучево-дожд. 
[Cb cap]
-2.5 -12.9 45 -2  1012.1  -0.5  752  307           
09 31.03.12 180 (Ю) >10 км    8/3 600 м кучево-дожд., средняя, верхняя 
[Cb cap|Ac lent|Cc]
-4.2 -13.2 50 -4  1013  0.7  752  309    -1.4       
12 31.03.12 180 (Ю) >10 км    10/0 верхняя 
[Cc]
-6.2 -12.1 63 -9  1014.4  1.4  753  312    -1.4       
15 31.03.12 160 (Ю) 4000 м  слаб. снег  10/0 средняя 
[Ac As]
-7.7 -12.2 70 -9  1015.2  0.5  754  314           
18 31.03.12 070 (В) 4000 м  слаб. снег  10/0 средняя 
[As trans]
-8 -11.6 75 -8  1015.4    754  314           
21 31.03.12 тихо ()   10 км  в посл. час снег  10/0 средняя 
[Ac lent]
-13.2 -13.8 95 -13  1016.3  0.7  754  321           
00 01.04.12 180 (Ю) >10 км  {снег}  10/0 средняя 
[Ac As]
-8.6 -12.9 71 -10  1016.5  0.4  755  315  -13.4    0.0  равномерный
мокрый или
старый снег
100% 
03 01.04.12 250 (З) >10 км  {ливн. осадки}  9/9 300 м кучево-дожд. 
[Cb cap]
-5.6 -12.7 57 -8  1016  -0.3  755  312           
06 01.04.12 250 (З) >10 км  {ливн. осадки}  9/9 600 м кучево-дожд., верхняя 
[Cb cap|Ci fib]
-3.8 -11.9 53 -7  1014.5  -1.4  753  309           
12 01.04.12 290 (З) 3{10}  >10 км  {ливн. осадки}  ясно 
-7.5 -14 60 -10  1017  1.7  755  314    -2.3  0.0     
15 01.04.12 290 (З) >10 км    ясно 
-9.7 -14.4 69 -11  1017.8  0.6  756  317           
18 01.04.12 340 (С) >10 км    ясно 
-11.3 -15.7 70 -13  1017.5  -0.3  755  319           
21 01.04.12 360 (С) >10 км    ясно 
-13.8 -16.5 80 -16  1018.1  0.4  756  322           
00 02.04.12 320 (СЗ) >10 км    ясно 
-6 -15.1 49 -7  1018.2  0.5  756  313  -14      равномерный
мокрый или
старый снег
100% 
03 02.04.12 290 (З) >10 км    4/4 1000 м 
[Cu med, cong]
-2.9 -15.6 37 -6  1017.3  -0.9  755  309           
06 02.04.12 320 (СЗ) 4{11}  >10 км    8/5 1000 м верхняя 
[Cu hum|Cc]
-0.8 -14.9 34 -3  1014.5  -2.5  754  306           
12 02.04.12 270 (З) 3{11}  >10 км    ясно 
-4.5 -14.9 44 -7  1014.7  754  310    +0.5       
15 02.04.12 230 (ЮЗ) >10 км    ясно 
-9.4 -14 69 -9  1014.5  -0.4  753  316           
18 02.04.12 тихо ()   >10 км    ясно 
-10.5 -14.9 70 -11  1013.5  -1  753  317           
21 02.04.12 360 (С) >10 км    ясно 
-13.5 -16.2 80 -13  1012.4  -1.3  752  320           
00 03.04.12 050 (СВ) >10 км    ясно 
-5.7 -12.9 57 -5  1011.3  -0.7  751  310  -13.8      равномерный
мокрый или
старый снег
100% 
Время (UTC), дата Ветер
(°,м/с) 
Видим.   Явления Облачность Т
(°С)
Тd
(°С)
f(%) Тe
(°С)
Pmin
(гПа)
dP
(гПа)
Po
(мм)
O2
(г/м3)
Тmin Tmax R s Состояние
почвы